CEB212 RPLL-RPVP

Flight info

Callsign CEB212
Flight time 0h 56m
Altitude 33000
Route BUCAL2V BUCAL M646 NOMYO NOMYO2W
Aircraft A20N/M-SDE2E3FGHIRWXY/LB1

Departure

Time 2026-04-20 17:04
Airport Ninoy Aquino International Airport (RPLL)

Arrival

Time 2026-04-20 18:01
Airport Puerto Princesa International Airport / PAF Antonio Bautista Air Base (RPVP)
Time Latitude Longitude Altitude Speed Heading
2026-04-20 16:25 14.51649 121.01721 64 ft 0 kts 225°
2026-04-20 16:44 14.51651 121.01722 72 ft 2 kts 225°
2026-04-20 16:44 14.51663 121.01733 61 ft 2 kts 221°
2026-04-20 16:45 14.51676 121.01743 61 ft 2 kts 211°
2026-04-20 16:45 14.51691 121.01750 61 ft 2 kts 192°
2026-04-20 16:45 14.51707 121.01749 61 ft 2 kts 154°
2026-04-20 16:45 14.51717 121.01742 62 ft 1 kts 135°
2026-04-20 16:46 14.51718 121.01741 62 ft 0 kts 135°
2026-04-20 16:49 14.51716 121.01743 61 ft 2 kts 134°
2026-04-20 16:49 14.51701 121.01760 67 ft 2 kts 134°
2026-04-20 16:50 14.51685 121.01773 71 ft 4 kts 146°
2026-04-20 16:50 14.51667 121.01782 69 ft 4 kts 162°
2026-04-20 16:50 14.51639 121.01782 66 ft 4 kts 198°
2026-04-20 16:50 14.51614 121.01765 68 ft 3 kts 224°
2026-04-20 16:51 14.51603 121.01753 64 ft 4 kts 224°
2026-04-20 16:51 14.51583 121.01733 66 ft 5 kts 224°
2026-04-20 16:51 14.51558 121.01707 65 ft 5 kts 225°
2026-04-20 16:51 14.51528 121.01677 65 ft 6 kts 224°
2026-04-20 16:52 14.51510 121.01659 64 ft 0 kts 224°
2026-04-20 16:52 14.51506 121.01655 65 ft 0 kts 224°
2026-04-20 16:55 14.51502 121.01651 64 ft 1 kts 224°
2026-04-20 16:55 14.51482 121.01631 70 ft 6 kts 222°
2026-04-20 16:55 14.51462 121.01593 64 ft 7 kts 268°
2026-04-20 16:55 14.51493 121.01550 68 ft 9 kts 319°
2026-04-20 16:56 14.51549 121.01494 65 ft 14 kts 314°
2026-04-20 16:56 14.51617 121.01423 71 ft 15 kts 315°
2026-04-20 16:56 14.51693 121.01347 67 ft 16 kts 314°
2026-04-20 16:56 14.51766 121.01270 72 ft 15 kts 315°
2026-04-20 16:57 14.51836 121.01197 72 ft 14 kts 314°
2026-04-20 16:57 14.51902 121.01129 65 ft 13 kts 316°
2026-04-20 16:57 14.51965 121.01065 65 ft 12 kts 315°
2026-04-20 16:57 14.52024 121.01003 72 ft 12 kts 315°
2026-04-20 16:58 14.52081 121.00946 67 ft 11 kts 314°
2026-04-20 16:58 14.52132 121.00893 70 ft 10 kts 315°
2026-04-20 16:58 14.52181 121.00843 64 ft 10 kts 315°
2026-04-20 16:58 14.52227 121.00795 69 ft 9 kts 314°
2026-04-20 16:59 14.52269 121.00751 67 ft 8 kts 315°
2026-04-20 16:59 14.52308 121.00711 70 ft 8 kts 315°
2026-04-20 16:59 14.52344 121.00674 72 ft 7 kts 315°
2026-04-20 16:59 14.52376 121.00641 69 ft 6 kts 315°
2026-04-20 17:00 14.52430 121.00585 69 ft 5 kts 315°
2026-04-20 17:00 14.52452 121.00563 67 ft 4 kts 315°
2026-04-20 17:00 14.52470 121.00544 68 ft 3 kts 315°
2026-04-20 17:01 14.52484 121.00529 67 ft 3 kts 315°
2026-04-20 17:01 14.52493 121.00515 70 ft 2 kts 292°
2026-04-20 17:01 14.52493 121.00506 71 ft 1 kts 269°
2026-04-20 17:01 14.52492 121.00501 72 ft 1 kts 248°
2026-04-20 17:02 14.52487 121.00495 72 ft 2 kts 231°
2026-04-20 17:02 14.52466 121.00471 69 ft 6 kts 228°
2026-04-20 17:02 14.52427 121.00429 71 ft 10 kts 226°
2026-04-20 17:02 14.52379 121.00394 63 ft 6 kts 169°
2026-04-20 17:03 14.52343 121.00422 71 ft 8 kts 136°
2026-04-20 17:03 14.52298 121.00469 67 ft 11 kts 135°
2026-04-20 17:03 14.52291 121.00476 71 ft 0 kts 135°
2026-04-20 17:03 14.52290 121.00476 71 ft 1 kts 135°
2026-04-20 17:04 14.52130 121.00642 70 ft 66 kts 135°
2026-04-20 17:04 14.51660 121.01132 62 ft 126 kts 134°
2026-04-20 17:04 14.50921 121.01887 243 ft 155 kts 135°
2026-04-20 17:04 14.50176 121.02659 774 ft 159 kts 134°
2026-04-20 17:05 14.49391 121.03473 1302 ft 162 kts 133°
2026-04-20 17:05 14.48539 121.04357 1678 ft 187 kts 133°
2026-04-20 17:05 14.47557 121.05377 1941 ft 214 kts 134°
2026-04-20 17:05 14.46431 121.06544 2125 ft 244 kts 134°
2026-04-20 17:06 14.45181 121.07835 2626 ft 260 kts 134°
2026-04-20 17:06 14.43745 121.08986 3405 ft 264 kts 151°
2026-04-20 17:06 14.41958 121.09446 4186 ft 270 kts 180°
2026-04-20 17:06 14.40091 121.09177 4974 ft 274 kts 190°
2026-04-20 17:07 14.38236 121.08675 5695 ft 279 kts 198°
2026-04-20 17:07 14.36458 121.07812 6410 ft 284 kts 207°
2026-04-20 17:07 14.34725 121.06780 7087 ft 289 kts 209°
2026-04-20 17:07 14.33002 121.05693 7810 ft 293 kts 210°
2026-04-20 17:08 14.31262 121.04575 8556 ft 296 kts 210°
2026-04-20 17:08 14.29507 121.03437 9292 ft 299 kts 210°
2026-04-20 17:08 14.27736 121.02286 10029 ft 302 kts 210°
2026-04-20 17:08 14.25922 121.01106 10442 ft 318 kts 210°
2026-04-20 17:09 14.24017 120.99866 10694 ft 336 kts 211°
2026-04-20 17:09 14.21989 120.98545 10940 ft 353 kts 211°
2026-04-20 17:09 14.19883 120.97171 11429 ft 360 kts 211°
2026-04-20 17:09 14.17751 120.95780 11966 ft 365 kts 211°
2026-04-20 17:10 14.15610 120.94383 12607 ft 367 kts 211°
2026-04-20 17:10 14.13429 120.92960 13190 ft 371 kts 212°
2026-04-20 17:10 14.11253 120.91542 13817 ft 373 kts 212°
2026-04-20 17:10 14.09047 120.90104 14362 ft 375 kts 212°
2026-04-20 17:11 14.06841 120.88667 14917 ft 378 kts 212°
2026-04-20 17:11 14.04598 120.87207 15471 ft 380 kts 212°
2026-04-20 17:11 14.02354 120.85745 16025 ft 383 kts 212°
2026-04-20 17:11 14.00093 120.84274 16570 ft 385 kts 211°
2026-04-20 17:12 13.97824 120.82798 17140 ft 387 kts 211°
2026-04-20 17:12 13.95573 120.81333 17656 ft 389 kts 212°
2026-04-20 17:12 13.93269 120.79835 18140 ft 392 kts 211°
2026-04-20 17:12 13.90963 120.78335 18575 ft 394 kts 212°
2026-04-20 17:13 13.88650 120.76832 18955 ft 396 kts 212°
2026-04-20 17:13 13.86301 120.75306 19341 ft 398 kts 212°
2026-04-20 17:13 13.83941 120.73773 19710 ft 400 kts 211°
2026-04-20 17:13 13.81588 120.72245 20112 ft 401 kts 212°
2026-04-20 17:14 13.79245 120.70723 20479 ft 403 kts 211°
2026-04-20 17:14 13.76871 120.69181 20887 ft 404 kts 211°
2026-04-20 17:14 13.74484 120.67631 21312 ft 405 kts 212°
2026-04-20 17:14 13.72085 120.66074 21650 ft 409 kts 211°
2026-04-20 17:15 13.69684 120.64516 22023 ft 411 kts 212°
2026-04-20 17:15 13.67244 120.62934 22403 ft 414 kts 212°
2026-04-20 17:15 13.64803 120.61351 22813 ft 416 kts 212°
2026-04-20 17:15 13.62350 120.59761 23209 ft 417 kts 212°
2026-04-20 17:16 13.59885 120.58243 23571 ft 420 kts 208°
2026-04-20 17:16 13.57287 120.56847 23864 ft 422 kts 206°
2026-04-20 17:16 13.54631 120.55531 24175 ft 424 kts 205°
2026-04-20 17:16 13.51959 120.54260 24509 ft 425 kts 204°
2026-04-20 17:17 13.49241 120.52984 24872 ft 427 kts 204°
2026-04-20 17:17 13.46542 120.51716 25220 ft 429 kts 204°
2026-04-20 17:17 13.43829 120.50433 25573 ft 430 kts 205°
2026-04-20 17:17 13.41102 120.49134 25933 ft 432 kts 205°
2026-04-20 17:18 13.38374 120.47827 26289 ft 434 kts 205°
2026-04-20 17:18 13.35629 120.46508 26653 ft 435 kts 205°
2026-04-20 17:18 13.32876 120.45185 26991 ft 437 kts 205°
2026-04-20 17:18 13.30157 120.43877 27332 ft 439 kts 205°
2026-04-20 17:19 13.27384 120.42543 27660 ft 441 kts 205°
2026-04-20 17:19 13.24594 120.41201 27978 ft 442 kts 205°
2026-04-20 17:19 13.21804 120.39861 28295 ft 444 kts 205°
2026-04-20 17:19 13.19002 120.38516 28614 ft 446 kts 205°
2026-04-20 17:20 13.16183 120.37162 28928 ft 447 kts 205°
2026-04-20 17:20 13.13356 120.35806 29233 ft 449 kts 205°
2026-04-20 17:20 13.10512 120.34441 29525 ft 451 kts 205°
2026-04-20 17:20 13.07676 120.33081 29905 ft 451 kts 205°
2026-04-20 17:21 13.04843 120.31723 30305 ft 449 kts 205°
2026-04-20 17:21 13.02025 120.30373 30702 ft 446 kts 205°
2026-04-20 17:21 12.99209 120.29023 31102 ft 444 kts 205°
2026-04-20 17:21 12.96414 120.27684 31456 ft 442 kts 205°
2026-04-20 17:22 12.93658 120.26364 31813 ft 441 kts 205°
2026-04-20 17:22 12.90881 120.25034 32192 ft 439 kts 205°
2026-04-20 17:22 12.88137 120.23720 32563 ft 437 kts 205°
2026-04-20 17:22 12.85392 120.22406 32859 ft 437 kts 205°
2026-04-20 17:23 12.82616 120.21078 32914 ft 437 kts 205°
2026-04-20 17:23 12.77127 120.18452 32914 ft 436 kts 205°
2026-04-20 17:24 12.71635 120.15826 32914 ft 436 kts 205°
2026-04-20 17:24 12.66145 120.13202 32912 ft 436 kts 205°
2026-04-20 17:25 12.60649 120.10577 32918 ft 436 kts 205°
2026-04-20 17:25 12.55138 120.07946 32916 ft 437 kts 205°
2026-04-20 17:26 12.49618 120.05312 32913 ft 437 kts 205°
2026-04-20 17:26 12.44108 120.02683 32914 ft 437 kts 205°
2026-04-20 17:27 12.38584 120.00050 32917 ft 437 kts 205°
2026-04-20 17:27 12.33104 119.97438 32916 ft 437 kts 205°
2026-04-20 17:28 12.27595 119.94814 32914 ft 437 kts 205°
2026-04-20 17:28 12.22073 119.92185 32911 ft 437 kts 205°
2026-04-20 17:29 12.16568 119.89565 32913 ft 437 kts 205°
2026-04-20 17:29 12.11085 119.86957 32914 ft 437 kts 205°
2026-04-20 17:30 12.05548 119.84325 32917 ft 436 kts 205°
2026-04-20 17:30 12.00087 119.81730 32914 ft 436 kts 205°
2026-04-20 17:31 11.94583 119.79115 32670 ft 434 kts 205°
2026-04-20 17:31 11.91836 119.77811 32057 ft 434 kts 205°
2026-04-20 17:31 11.89091 119.76507 31384 ft 436 kts 205°
2026-04-20 17:31 11.86334 119.75199 30705 ft 439 kts 205°
2026-04-20 17:32 11.83560 119.73883 30115 ft 439 kts 205°
2026-04-20 17:32 11.80795 119.72571 29525 ft 438 kts 205°
2026-04-20 17:32 11.78040 119.71264 28980 ft 435 kts 205°
2026-04-20 17:32 11.75301 119.69965 28479 ft 431 kts 205°
2026-04-20 17:33 11.72598 119.68683 27984 ft 428 kts 205°
2026-04-20 17:33 11.69903 119.67410 27472 ft 425 kts 204°
2026-04-20 17:33 11.67217 119.66157 26971 ft 423 kts 204°
2026-04-20 17:33 11.64581 119.64932 26490 ft 420 kts 204°
2026-04-20 17:34 11.61916 119.63695 26010 ft 418 kts 204°
2026-04-20 17:34 11.59289 119.62476 25535 ft 415 kts 204°
2026-04-20 17:34 11.56667 119.61260 25065 ft 413 kts 204°
2026-04-20 17:34 11.54049 119.60045 24598 ft 410 kts 204°
2026-04-20 17:35 11.51461 119.58844 24135 ft 408 kts 204°
2026-04-20 17:35 11.48869 119.57642 23676 ft 406 kts 204°
2026-04-20 17:35 11.46304 119.56452 23167 ft 404 kts 204°
2026-04-20 17:35 11.43786 119.55284 22622 ft 402 kts 204°
2026-04-20 17:36 11.41250 119.54109 22120 ft 399 kts 204°
2026-04-20 17:36 11.38725 119.52938 21631 ft 396 kts 204°
2026-04-20 17:36 11.36217 119.51776 21142 ft 393 kts 204°
2026-04-20 17:36 11.33736 119.50627 20645 ft 391 kts 204°
2026-04-20 17:37 11.31261 119.49480 20153 ft 389 kts 204°
2026-04-20 17:37 11.29634 119.48726 19836 ft 387 kts 204°
2026-04-20 17:37 11.27192 119.47595 19362 ft 385 kts 204°
2026-04-20 17:37 11.24757 119.46468 18889 ft 382 kts 204°
2026-04-20 17:38 11.21558 119.44987 18279 ft 380 kts 204°
2026-04-20 17:38 11.19159 119.43877 17750 ft 378 kts 204°
2026-04-20 17:38 11.17544 119.43129 17382 ft 377 kts 204°
2026-04-20 17:38 11.15158 119.42026 16867 ft 375 kts 204°
2026-04-20 17:39 11.12022 119.40575 16190 ft 372 kts 204°
2026-04-20 17:39 11.10460 119.39853 15852 ft 371 kts 204°
2026-04-20 17:39 11.08114 119.38768 15350 ft 369 kts 204°
2026-04-20 17:39 11.05779 119.37688 14858 ft 367 kts 204°
2026-04-20 17:40 11.03450 119.36611 14363 ft 366 kts 204°
2026-04-20 17:40 11.01136 119.35542 13894 ft 365 kts 204°
2026-04-20 17:40 10.98827 119.34475 13363 ft 363 kts 203°
2026-04-20 17:40 10.96539 119.33418 12993 ft 359 kts 203°
2026-04-20 17:41 10.94262 119.32366 12861 ft 358 kts 203°
2026-04-20 17:41 10.91991 119.31317 12613 ft 357 kts 203°
2026-04-20 17:41 10.89762 119.30287 12371 ft 356 kts 203°
2026-04-20 17:41 10.87512 119.29248 12122 ft 354 kts 203°
2026-04-20 17:42 10.85275 119.28215 11887 ft 352 kts 203°
2026-04-20 17:42 10.83053 119.27190 11647 ft 350 kts 203°
2026-04-20 17:42 10.80834 119.26166 11405 ft 348 kts 203°
2026-04-20 17:42 10.78644 119.25155 11173 ft 346 kts 203°
2026-04-20 17:43 10.76446 119.24141 10978 ft 345 kts 203°
2026-04-20 17:43 10.74260 119.23133 10938 ft 345 kts 203°
2026-04-20 17:43 10.72063 119.22120 10937 ft 345 kts 203°
2026-04-20 17:43 10.69877 119.21112 10936 ft 345 kts 203°
2026-04-20 17:44 10.67686 119.20102 10937 ft 345 kts 203°
2026-04-20 17:44 10.65522 119.19105 10939 ft 345 kts 203°
2026-04-20 17:44 10.63335 119.18097 10939 ft 345 kts 203°
2026-04-20 17:44 10.61135 119.17083 10939 ft 345 kts 203°
2026-04-20 17:45 10.58951 119.16076 10937 ft 345 kts 203°
2026-04-20 17:45 10.56749 119.15062 10935 ft 345 kts 203°
2026-04-20 17:45 10.54557 119.14053 10946 ft 345 kts 203°
2026-04-20 17:45 10.52388 119.13054 10937 ft 344 kts 203°
2026-04-20 17:46 10.50203 119.12048 10937 ft 343 kts 203°
2026-04-20 17:46 10.48060 119.11061 10935 ft 343 kts 203°
2026-04-20 17:46 10.45883 119.10060 10936 ft 343 kts 203°
2026-04-20 17:46 10.43678 119.09046 10934 ft 343 kts 203°
2026-04-20 17:47 10.41531 119.08057 10940 ft 343 kts 203°
2026-04-20 17:47 10.39361 119.07059 10939 ft 343 kts 203°
2026-04-20 17:47 10.37183 119.06057 10940 ft 343 kts 203°
2026-04-20 17:47 10.35028 119.05004 10924 ft 344 kts 208°
2026-04-20 17:48 10.33022 119.03675 10714 ft 344 kts 214°
2026-04-20 17:48 10.31097 119.02243 10473 ft 343 kts 215°
2026-04-20 17:48 10.29188 119.00797 10253 ft 342 kts 215°
2026-04-20 17:48 10.27289 118.99361 10023 ft 340 kts 215°
2026-04-20 17:49 10.25390 118.97928 9796 ft 335 kts 215°
2026-04-20 17:49 10.23552 118.96545 9530 ft 324 kts 215°
2026-04-20 17:49 10.21766 118.95201 9286 ft 313 kts 215°
2026-04-20 17:49 10.20083 118.93933 9119 ft 299 kts 214°
2026-04-20 17:50 10.18406 118.92676 9001 ft 298 kts 214°
2026-04-20 17:50 10.16746 118.91436 8871 ft 298 kts 214°
2026-04-20 17:50 10.15030 118.90267 8636 ft 297 kts 204°
2026-04-20 17:50 10.13091 118.89686 8384 ft 287 kts 180°
2026-04-20 17:51 10.11132 118.89903 8146 ft 283 kts 164°
2026-04-20 17:51 10.09225 118.90435 7899 ft 283 kts 160°
2026-04-20 17:51 10.07345 118.91012 7663 ft 282 kts 160°
2026-04-20 17:51 10.05467 118.91588 7419 ft 280 kts 160°
2026-04-20 17:52 10.03627 118.92144 7183 ft 278 kts 161°
2026-04-20 17:52 10.01760 118.92703 6943 ft 278 kts 161°
2026-04-20 17:52 9.99898 118.93254 6723 ft 277 kts 160°
2026-04-20 17:52 9.98054 118.93806 6491 ft 273 kts 160°
2026-04-20 17:53 9.96258 118.94342 6294 ft 266 kts 160°
2026-04-20 17:53 9.94486 118.94873 5970 ft 265 kts 160°
2026-04-20 17:53 9.92707 118.95406 5616 ft 265 kts 160°
2026-04-20 17:53 9.90934 118.95936 5249 ft 265 kts 160°
2026-04-20 17:54 9.89183 118.96458 4924 ft 265 kts 160°
2026-04-20 17:54 9.87402 118.96989 4566 ft 265 kts 161°
2026-04-20 17:54 9.85627 118.97518 4205 ft 265 kts 161°
2026-04-20 17:54 9.83852 118.98047 3858 ft 265 kts 161°
2026-04-20 17:55 9.82090 118.98507 3522 ft 266 kts 170°
2026-04-20 17:55 9.80257 118.98481 3427 ft 255 kts 184°
2026-04-20 17:55 9.78528 118.98217 3225 ft 250 kts 187°
2026-04-20 17:55 9.76829 118.97921 2879 ft 250 kts 188°
2026-04-20 17:56 9.75166 118.97427 2556 ft 251 kts 207°
2026-04-20 17:56 9.73896 118.96262 2432 ft 243 kts 239°
2026-04-20 17:56 9.73415 118.94717 2450 ft 222 kts 266°
2026-04-20 17:56 9.73398 118.93339 2453 ft 212 kts 272°
2026-04-20 17:57 9.73442 118.92155 2440 ft 213 kts 273°
2026-04-20 17:57 9.73522 118.90668 2435 ft 204 kts 274°
2026-04-20 17:57 9.73596 118.89312 2407 ft 182 kts 274°
2026-04-20 17:58 9.73653 118.88121 2316 ft 161 kts 273°
2026-04-20 17:58 9.73694 118.87021 2032 ft 153 kts 272°
2026-04-20 17:58 9.73698 118.85967 1738 ft 146 kts 270°
2026-04-20 17:58 9.73729 118.84949 1461 ft 144 kts 274°
2026-04-20 17:59 9.73786 118.83939 1207 ft 142 kts 272°
2026-04-20 17:59 9.73849 118.82939 1024 ft 143 kts 274°
2026-04-20 17:59 9.73917 118.81938 889 ft 141 kts 275°
2026-04-20 17:59 9.73990 118.80940 830 ft 142 kts 272°
2026-04-20 18:00 9.74036 118.79945 708 ft 141 kts 274°
2026-04-20 18:00 9.74086 118.78955 519 ft 141 kts 271°
2026-04-20 18:00 9.74123 118.77968 336 ft 140 kts 271°
2026-04-20 18:00 9.74165 118.76992 124 ft 140 kts 272°
2026-04-20 18:01 9.74210 118.76075 82 ft 119 kts 270°
2026-04-20 18:01 9.74229 118.75516 86 ft 37 kts 272°
2026-04-20 18:01 9.74238 118.75300 85 ft 30 kts 271°
2026-04-20 18:01 9.74253 118.75243 87 ft 0 kts 352°
2026-04-20 18:02 9.74258 118.75243 87 ft 1 kts 353°
2026-04-20 18:02 9.74277 118.75246 86 ft 9 kts 14°
2026-04-20 18:02 9.74362 118.75256 86 ft 8 kts 12°
2026-04-20 18:02 9.74377 118.75254 87 ft 0 kts 329°
2026-04-20 18:03 9.74394 118.75241 89 ft 7 kts 323°
2026-04-20 18:03 9.74410 118.75199 87 ft 6 kts 271°
2026-04-20 18:03 9.74412 118.75159 87 ft 5 kts 277°
2026-04-20 18:03 9.74424 118.75151 85 ft 3 kts
2026-04-20 18:04 9.74456 118.75153 86 ft 7 kts
2026-04-20 18:04 9.74500 118.75154 88 ft 4 kts 360°
2026-04-20 18:04 9.74505 118.75155 89 ft 0 kts